User: anonymous   Login
Location: *
(44.3925°N, 5.4708°E)
Time: 01:58:18
(UTC+00:00)
Language:

Meteor 1-4 Rocket - Orbit

View from above orbital plane
View from above orbital plane
View from above satellite
View from above satellite

Ground track
Ground track

The orbit data is extracted from the following two-line orbital elements,

1  4394U 70037B   19325.78381916  .00000825  00000-0  27057-4 0  9990
2  4394  81.2439  51.3099 0038437 330.8335  29.0754 15.29649128700399
Epoch (UTC): 21 November 2019 18:48:41
Eccentricity: 0.0038437
inclination: 81.2439°
perigee height: 450 km
apogee height: 503 km
right ascension of ascending node: 51.3099°
argument of perigee: 330.8335°
revolutions per day: 15.29649128
mean anomaly at epoch: 29.0754°
orbit number at epoch: 70039

The dashed part of the orbit path shows where the satellite is in the earth's shadow,  

DLR